Home > Weather > Jersey City > Past weeks

Flag for USA Past Weather in Jersey City, New Jersey, USA — Yesterday and Last 2 Weeks

Now
90 °F

Scattered clouds.


Feels Like: 93 °F
Forecast: 76 / 91 °F
Wind: 16 mph from Northwest

Location: Newark International Airport

Current Time: Aug 26, 2016 at 4:00:25 PM

Latest Report: Aug 26, 2016 at 2:51 PM


Visibility: 10 mi

Pressure: 29.97 "Hg

Humidity: 47%

Dew Point: 67 °F

Location of Jersey CityLocation

Past Weather in Jersey City — Graph

°F

Jersey City Temperature Yesterday

Maximum temperature yesterday: 87 °F (at 1:51 PM)
Minimum temperature yesterday: 68 °F (at 5:51 AM)
Average temperature yesterday: 78 °F

High & Low Weather Summary for the Past Weeks

 TemperatureHumidityPressure
High96 °F (Aug 12, 3:51 PM)94% (Aug 12, 4:51 AM)30.32 "Hg (Aug 12, 4:51 AM)
Low61 °F (Aug 23, 6:51 AM)30% (Aug 23, 3:51 PM)29.76 "Hg (Aug 21, 4:51 PM)
Average81 °F64%30.01 "Hg
* Reported Aug 11 2:51 PM — Aug 26 2:51 PM, Jersey City, Weather by CustomWeather, © 2016

Note: Actual official high and low records may vary slightly from our data, if they occured in-between our weather recording intervals... More about our weather records

Advertising

Jersey City Weather History for the Previous 24 Hours

Scroll right to see more
 ConditionsComfort  
Time TempWeatherWind HumidityBarometerVisibility
2:51 PM
Fri, Aug 26
90 °FScattered clouds.16 mph47%29.97 "Hg10 mi
1:51 PM92 °FScattered clouds.13 mph44%29.97 "Hg10 mi
12:51 PM92 °FScattered clouds.14 mph43%29.97 "Hg10 mi
11:51 AM90 °FBroken clouds.13 mph48%29.98 "Hg10 mi
10:51 AM89 °FBroken clouds.13 mph55%29.97 "Hg10 mi
9:51 AM84 °FScattered clouds.7 mph67%29.97 "Hg10 mi
8:51 AM81 °FPartly sunny.9 mph74%29.99 "Hg10 mi
7:51 AM77 °FPartly sunny.10 mph82%29.98 "Hg10 mi
6:51 AM76 °FPartly cloudy.10 mph82%29.98 "Hg10 mi
5:51 AM76 °FPartly cloudy.10 mph82%29.98 "Hg10 mi
4:51 AM75 °FPassing clouds.7 mph85%29.97 "Hg10 mi
3:51 AM76 °FPassing clouds.9 mph82%29.98 "Hg10 mi
2:51 AM77 °FPassing clouds.12 mph79%29.98 "Hg10 mi
1:51 AM77 °FPassing clouds.7 mph82%29.97 "Hg10 mi
12:51 AM78 °FPassing clouds.8 mph79%29.98 "Hg10 mi
11:51 PM
Thu, Aug 25
79 °FPassing clouds.9 mph77%29.99 "Hg10 mi
10:51 PM80 °FPassing clouds.10 mph71%30.00 "Hg10 mi
9:51 PM80 °FPassing clouds.9 mph71%30.00 "Hg10 mi
8:51 PM82 °FPartly cloudy.8 mph67%30.00 "Hg10 mi
7:51 PM83 °FMostly cloudy.13 mph65%29.99 "Hg10 mi
6:51 PM83 °FCloudy.10 mph65%29.98 "Hg10 mi
5:51 PM82 °FMostly cloudy.7 mph72%29.99 "Hg10 mi
4:51 PM84 °FLight rain. Mostly cloudy.10 mph61%30.00 "Hg10 mi
Weather by CustomWeather, © 2016

See weather overviewHow to use our weather pages